Tracking 17925 objects as of 20-January-2017
HD Live streaming from Space Station
objects crossing your sky now

BREEZE-M DEB

Track BREEZE-M DEB now!
10-day predictions


NORAD ID: 34259
Int'l Code: 2006-006CA
Perigee: 1,112.3 km
Apogee: 14,729.5 km
Inclination: 51.0 °
Period: 283.4 minutes
Semi major axis: 14291 km
RCS: 0.2413 m2 (medium)
Launch date: February 28, 2006
Source: Commonwealth of Independent States (former USSR) (CIS)
Launch site: TYURATAM MISSILE AND SPACE COMPLEX (TTMTR)

Note: This is SATELLITE DEBRIS
Your satellite tracking list
Your tracking list is empty





NASA's NSSDC Master Catalog

Two Line Element Set (TLE):
1 34259U 06006CA  17019.51668753 -.00000074  00000-0  00000+0 0  9995
2 34259  51.0120  88.8158 4763932 200.1971 131.8157  5.08120763202952
Source of the keplerian elements: AFSPC